FW6372 Weather Reports


time (UTC)temp
C
wind
direction
speed
KPH
gust
KPH
rain 1hr
cm
rain 24hr
cm
rain mn
cm
humidity
%
barometer
mb
20260502163053 16 0 0.0 4.8 0.00 0.00 0.00 34 1020.5
20260502161555 15 0 0.0 4.8 0.00 0.00 0.00 36 1020.5
20260502151606 12 0 0.0 1.6 0.00 0.00 0.00 41 1021.0
20260502150103 11 0 0.0 3.2 0.00 0.00 0.00 45 1020.9
20260502123102 5 0 0.0 3.2 0.00 0.00 0.00 60 1021.3
20260502121552 4 0 0.0 0.0 0.00 0.00 0.00 60 1021.3
20260502114556 4 0 0.0 0.0 0.00 0.00 0.00 62 1021.3
20260502113059 4 0 0.0 0.0 0.00 0.00 0.00 61 1021.2
20260502111555 4 0 0.0 0.0 0.00 0.00 0.00 61 1021.3
20260502110052 4 0 0.0 0.0 0.00 0.00 0.00 60 1021.3
20260502104550 5 0 0.0 0.0 0.00 0.00 0.00 60 1021.1
20260502103105 5 0 0.0 0.0 0.00 0.00 0.00 58 1021.1
20260502101611 5 0 0.0 0.0 0.00 0.00 0.00 57 1021.1
20260502100125 5 0 0.0 0.0 0.00 0.00 0.00 55 1021.1
20260502090112 7 0 0.0 0.0 0.00 0.00 0.00 50 1020.9
20260502070054 8 0 0.0 0.0 0.00 0.00 0.00 44 1020.8
20260502064600 7 0 0.0 0.0 0.00 0.00 0.00 45 1020.7
20260502063054 7 0 0.0 0.0 0.00 0.00 0.00 45 1020.6
20260502061611 8 0 0.0 0.0 0.00 0.00 0.00 44 1020.5
20260502060053 8 0 0.0 0.0 0.00 0.00 0.00 43 1020.6
20260502054553 8 0 0.0 0.0 0.00 0.00 0.00 43 1020.5
20260502053103 8 0 0.0 0.0 0.00 0.00 0.00 42 1020.5
20260502051553 9 0 0.0 0.0 0.00 0.00 0.00 41 1020.5
20260502050053 10 0 0.0 0.0 0.00 0.00 0.00 40 1020.5
20260502044549 10 0 0.0 0.0 0.00 0.00 0.00 39 1020.7
20260502043059 10 0 0.0 0.0 0.00 0.00 0.00 38 1020.5
20260502041555 11 0 0.0 0.0 0.00 0.00 0.00 37 1020.7
20260502040058 11 0 0.0 0.0 0.00 0.00 0.00 36 1020.5
20260502034550 12 0 0.0 0.0 0.00 0.00 0.00 33 1020.3
20260502033052 12 0 0.0 0.0 0.00 0.00 0.00 30 1020.3
20260502031600 13 0 0.0 0.0 0.00 0.00 0.00 28 1020.0
20260502030107 13 0 0.0 0.0 0.00 0.00 0.00 28 1019.9
20260502024601 13 0 0.0 0.0 0.00 0.00 0.00 27 1019.7
20260502023056 15 0 0.0 0.0 0.00 0.00 0.00 25 1019.6
20260502021552 16 0 0.0 0.0 0.00 0.00 0.00 23 1019.6
20260502020051 18 0 0.0 0.0 0.00 0.00 0.00 17 1019.5
20260502014547 18 0 0.0 0.0 0.00 0.00 0.00 16 1019.4
20260502013049 20 0 0.0 0.0 0.00 0.00 0.00 16 1019.5
20260502011550 20 0 0.0 0.0 0.00 0.00 0.00 16 1019.5
20260502010048 20 0 0.0 1.6 0.00 0.00 0.00 16 1019.4
20260502004558 20 0 0.0 1.6 0.00 0.00 0.00 17 1019.4
20260502003049 20 0 0.0 1.6 0.00 0.00 0.00 16 1019.5
20260502001554 21 0 0.0 4.8 0.00 0.00 0.00 16 1019.5
20260502000053 21 0 0.0 0.0 0.00 0.00 0.00 17 1019.5
20260501234551 21 0 0.0 4.8 0.00 0.00 0.00 16 1019.5
20260501233054 21 0 0.0 3.2 0.00 0.00 0.00 17 1019.5
20260501231553 21 0 0.0 9.7 0.00 0.00 0.00 17 1019.5
20260501230059 21 0 0.0 6.4 0.00 0.00 0.00 18 1019.8
20260501224553 22 0 0.0 3.2 0.00 0.00 0.00 19 1019.7
20260501223059 21 0 0.0 3.2 0.00 0.00 0.00 20 1019.8
20260501221550 21 0 0.0 4.8 0.00 0.00 0.00 19 1020.0
20260501220056 22 0 0.0 3.2 0.00 0.00 0.00 19 1020.2
20260501214556 22 0 0.0 1.6 0.00 0.00 0.00 19 1020.3
20260501213058 21 0 0.0 0.0 0.00 0.00 0.00 21 1020.5
20260501211604 21 0 0.0 1.6 0.00 0.00 0.00 21 1020.7
20260501210057 21 0 0.0 0.0 0.00 0.00 0.00 21 1020.8
20260501204619 21 0 0.0 0.0 0.00 0.00 0.00 22 1020.8
20260501203052 21 0 0.0 1.6 0.00 0.00 0.00 22 1021.0
20260501201553 20 0 0.0 3.2 0.00 0.00 0.00 23 1021.1
20260501200052 20 0 0.0 0.0 0.00 0.00 0.00 23 1021.1
20260501194602 21 360 0.0 3.2 0.00 0.00 0.00 23 1021.4
20260501193055 20 0 0.0 0.0 0.00 0.00 0.00 24 1021.6
20260501191556 20 0 0.0 3.2 0.00 0.00 0.00 24 1021.7
20260501190052 19 0 0.0 3.2 0.00 0.00 0.00 25 1021.9
20260501184553 20 0 0.0 3.2 0.00 0.00 0.00 25 1022.0
20260501183056 19 0 0.0 3.2 0.00 0.00 0.00 25 1022.2
20260501181556 20 0 0.0 0.0 0.00 0.00 0.00 23 1022.2